Location: IoMAS Observatory
(54.1780°N, 4.6265°W)
Time: 00:09:04
(UTC+01:00)

ISS - Pass Details

Date: 27 February 2019
Orbit: 406 x 411 km, 51.6° (Epoch: 21 March)

Event Time Altitude Azimuth Distance (km) Brightness Sun altitude
Exits shadow 06:18:07 - 182° (S) 1,572 -1.0 -17.5°
Reaches altitude 10° 06:18:35 10° 176° (S) 1,462 -1.1 -17.4°
Maximum altitude 06:20:18 14° 144° (SE) 1,264 -1.0 -17.2°
Drops below altitude 10° 06:22:02 10° 112° (ESE) 1,467 -0.1 -16.9°
Sets 06:24:53 0° 85° (E) 2,333 1.9 -16.5°
